Weather History for LEBL - December, 2013

Change the Weather History Date:

Wednesday, December 25, 2013

  Actual Average Record
Temperature  
Mean Temperature 54 °F -  
Max Temperature 58 °F 54 °F 68 °F (2002)
Min Temperature 51 °F 40 °F 24 °F (2001)
Degree Days  
Heating Degree Days 10    
Growing Degree Days 4 (Base 50)    
Moisture  
Dew Point 49 °F    
Average Humidity 79    
Maximum Humidity 89    
Minimum Humidity 54    
Precipitation  
Precipitation 0.03 in 0.06 in - ()
Sea Level Pressure  
Sea Level Pressure 29.47 in    
Wind  
Wind Speed 11 mph ()    
Max Wind Speed 26 mph    
Max Gust Speed 29 mph    
Visibility 7.2 miles    
Events Rain    
Averages and records for this station are not official NWS values.
T = Trace of Precipitation, MM = Missing Value Source: Averaged Metar Reports

Daily Weather History Graph

Daily Weather History Graph

Search for Another Location

Airport or City:

Trip Planner

Search our weather history database for the weather conditions in past years. The results will help you decide how hot, cold, wet, or windy it might be!

Date:

Astronomy

Dec. 25, 2013 Rise Set
Actual Time 8:15 AM CET 5:27 PM CET
Civil Twilight 7:44 AM CET 5:59 PM CET
Nautical Twilight 7:09 AM CET 6:34 PM CET
Astronomical Twilight 6:36 AM CET 7:07 PM CET
Moon 12:24 AM CET (12/25) 12:27 PM CET (12/25)
Length of Visible Light 10h 14m
Length of Day
9h 12m
Waning Gibbous, 51% of the Moon is Illuminated
Dec 25
Waning Gibbous
Dec 25
Last Quarter
Jan 1
New
Jan 8
First Quarter
Jan 16
Full

Hourly Weather History & Observations

Time (CET) Temp. Dew Point Humidity Pressure Visibility Wind Dir Wind Speed Gust Speed Precip Events Conditions
12:00 AM 58 °F 54 °F 81% 29.70 in 6 mi SW 17.3 mph - - Rain Drizzle
12:00 AM 57.2 °F 51.8 °F 82% 29.68 in 5.0 mi SW 16.1 mph - N/A Rain Light Rain
12:30 AM 57.2 °F 51.8 °F 82% 29.65 in 5.6 mi SSW 16.1 mph - N/A Rain Light Rain
1:00 AM 57 °F 54 °F 85% 29.67 in 6 mi SW 16.1 mph - - Rain Light Rain
1:00 AM 57.2 °F 51.8 °F 82% 29.65 in 5.6 mi SSW 12.7 mph - N/A Rain Light Rain
1:30 AM 57.2 °F 51.8 °F 82% 29.65 in 5.0 mi SSW 12.7 mph - N/A   Partly Cloudy
2:00 AM 57 °F 55 °F 89% 29.62 in 5 mi SW 9.2 mph - -   Mist
2:00 AM 57.2 °F 51.8 °F 82% 29.62 in 4.3 mi SW 6.9 mph - N/A   Partly Cloudy
2:30 AM 57.2 °F 51.8 °F 82% 29.59 in 4.3 mi SW 8.1 mph - N/A   Partly Cloudy
3:00 AM 58 °F 55 °F 86% 29.60 in 5 mi SW 12.7 mph - -   Mist
3:00 AM 57.2 °F 53.6 °F 88% 29.59 in 4.3 mi SW 11.5 mph - N/A   Partly Cloudy
3:30 AM 57.2 °F 53.6 °F 88% 29.59 in 3.7 mi WSW 8.1 mph - N/A   Partly Cloudy
4:00 AM 58 °F 55 °F 87% 29.60 in 4 mi SW 15.0 mph - - Rain Light Rain
4:00 AM 57.2 °F 53.6 °F 88% 29.59 in 3.7 mi SW 13.8 mph - N/A Rain Light Rain
4:30 AM 57.2 °F 53.6 °F 88% 29.56 in 4.3 mi SW 16.1 mph - N/A   Partly Cloudy
5:00 AM 58 °F 55 °F 85% 29.55 in 4 mi SW 13.8 mph - - Rain Light Rain
5:00 AM 57.2 °F 51.8 °F 82% 29.56 in 4.3 mi SW 12.7 mph - N/A   Partly Cloudy
5:30 AM 57.2 °F 51.8 °F 82% 29.53 in 4.3 mi SW 9.2 mph - N/A   Partly Cloudy
6:00 AM 57 °F 54 °F 87% 29.52 in 4 mi SW 11.5 mph - -   Mist
6:00 AM 57.2 °F 51.8 °F 82% 29.50 in 4.3 mi SW 8.1 mph - N/A   Partly Cloudy
6:30 AM 57.2 °F 51.8 °F 82% 29.50 in 4.3 mi SW 11.5 mph - N/A   Partly Cloudy
7:00 AM 57 °F 54 °F 87% 29.51 in 5 mi SW 11.5 mph - -   Mist
7:00 AM 57.2 °F 51.8 °F 82% 29.50 in 5.0 mi SW 11.5 mph - N/A   Partly Cloudy
7:30 AM 57.2 °F 51.8 °F 82% 29.50 in 5.0 mi SW 13.8 mph - N/A   Partly Cloudy
8:00 AM 58 °F 53 °F 78% 29.52 in 6 mi WSW 18.4 mph - -   Mist
8:00 AM 57.2 °F 50.0 °F 77% 29.50 in 5.6 mi WSW 17.3 mph - N/A   Partly Cloudy
8:30 AM 57.2 °F 51.8 °F 82% 29.50 in 6.2 mi SW 25.3 mph - N/A   Partly Cloudy
9:00 AM 58 °F 54 °F 81% 29.53 in 6 mi WSW 21.9 mph - -   Mist
9:00 AM 57.2 °F 51.8 °F 82% 29.53 in 6.2 mi WSW 26.5 mph - N/A   Partly Cloudy
9:30 AM 57.2 °F 50.0 °F 77% 29.53 in 6.2 mi WSW 21.9 mph - N/A Rain Light Rain
10:00 AM 57 °F 52 °F 76% 29.53 in 7 mi WSW 17.3 mph - - Rain Light Rain
10:00 AM 57.2 °F 50.0 °F 77% 29.50 in 6.2 mi WSW 18.4 mph - N/A Rain Light Rain
10:30 AM 57.2 °F 50.0 °F 77% 29.53 in 6.2 mi SW 12.7 mph - N/A   Scattered Clouds
11:00 AM 58 °F 51 °F 72% 29.54 in 6 mi SW 11.5 mph - -   Mist
11:00 AM 57.2 °F 48.2 °F 72% 29.53 in 6.2 mi SW 13.8 mph - N/A   Partly Cloudy
11:30 AM 57.2 °F 50.0 °F 77% 29.50 in 6.2 mi WSW 11.5 mph - N/A   Partly Cloudy
12:00 PM 58 °F 51 °F 70% 29.51 in 8 mi WSW 8.1 mph - -   Clear
12:00 PM 57.2 °F 48.2 °F 72% 29.50 in 6.2 mi West 8.1 mph - N/A   Partly Cloudy
12:30 PM 59.0 °F 48.2 °F 67% 29.47 in 6.2 mi West 4.6 mph - N/A   Scattered Clouds
1:00 PM 58 °F 52 °F 76% 29.47 in 5 mi SW 5.8 mph - - Rain Light Rain
1:00 PM 57.2 °F 50.0 °F 77% 29.47 in 5.0 mi SW 6.9 mph - N/A Rain Light Rain
1:30 PM 55.4 °F 50.0 °F 82% 29.44 in 3.7 mi SW 8.1 mph - N/A Rain Light Rain
2:00 PM 56 °F 54 °F 89% 29.43 in 6 mi WSW 6.9 mph - - Rain Light Rain
2:00 PM 55.4 °F 51.8 °F 88% 29.42 in 5.0 mi WSW 8.1 mph - N/A Rain Light Rain
2:30 PM 55.4 °F 51.8 °F 88% 29.42 in 5.6 mi West 11.5 mph - N/A Rain Light Rain
3:00 PM 55 °F 49 °F 73% 29.40 in 19 mi NNW 8.1 mph - - Rain Light Rain
3:00 PM 55.4 °F 46.4 °F 72% 29.39 in 6.2 mi NW 6.9 mph - N/A Rain Light Rain
3:30 PM 55.4 °F 48.2 °F 77% 29.36 in 6.2 mi NNW 4.6 mph - N/A   Scattered Clouds
4:00 PM 54 °F 51 °F 87% 29.39 in 19 mi NW 3.5 mph - -   Partly Cloudy
4:00 PM 53.6 °F 48.2 °F 82% 29.36 in 6.2 mi Calm Calm - N/A   Scattered Clouds
4:30 PM 53.6 °F 50.0 °F 88% 29.36 in 6.2 mi WNW 4.6 mph - N/A   Scattered Clouds
5:00 PM 54 °F 50 °F 82% 29.34 in 19 mi West 3.5 mph - -  
5:00 PM 53.6 °F 48.2 °F 82% 29.33 in 6.2 mi Variable 1.2 mph - N/A   Scattered Clouds
5:30 PM 53.6 °F 48.2 °F 82% 29.33 in 6.2 mi WNW 3.5 mph - N/A   Scattered Clouds
6:00 PM 53 °F 49 °F 83% 29.34 in 19 mi WSW 4.6 mph - -  
6:00 PM 51.8 °F 48.2 °F 88% 29.33 in 6.2 mi WNW 5.8 mph - N/A   Scattered Clouds
6:30 PM 51.8 °F 46.4 °F 82% 29.33 in 6.2 mi West 6.9 mph - N/A   Scattered Clouds
7:00 PM 52 °F 48 °F 82% 29.34 in 19 mi West 6.9 mph - -   Partly Cloudy
7:00 PM 51.8 °F 46.4 °F 82% 29.33 in 6.2 mi WSW 10.4 mph - N/A   Scattered Clouds
7:30 PM 51.8 °F 44.6 °F 76% 29.33 in 6.2 mi WSW 8.1 mph - N/A   Scattered Clouds
8:00 PM 51 °F 45 °F 73% 29.33 in 19 mi West 10.4 mph - -  
8:00 PM 51.8 °F 42.8 °F 71% 29.33 in 6.2 mi West 15.0 mph - N/A   Partly Cloudy
8:30 PM 51.8 °F 42.8 °F 71% 29.33 in 6.2 mi West 11.5 mph - N/A   Partly Cloudy
9:00 PM 53 °F 44 °F 64% 29.33 in 19 mi West 15.0 mph - -  
9:00 PM 53.6 °F 41.0 °F 62% 29.33 in 6.2 mi West 13.8 mph - N/A   Partly Cloudy
9:30 PM 53.6 °F 41.0 °F 62% 29.30 in 6.2 mi West 13.8 mph - N/A   Partly Cloudy
10:00 PM 52 °F 43 °F 63% 29.33 in 19 mi West 11.5 mph - -   Scattered Clouds
10:00 PM 51.8 °F 41.0 °F 67% 29.33 in 6.2 mi West 15.0 mph - N/A   Partly Cloudy
10:30 PM 51.8 °F 41.0 °F 67% 29.33 in 6.2 mi WSW 10.4 mph - N/A   Partly Cloudy
11:00 PM 51 °F 43 °F 66% 29.37 in 19 mi West 11.5 mph - -  
11:00 PM 51.8 °F 41.0 °F 67% 29.36 in 6.2 mi West 13.8 mph 28.8 mph N/A   Partly Cloudy
11:30 PM 51.8 °F 35.6 °F 54% 29.36 in 6.2 mi West 12.7 mph - N/A   Partly Cloudy